Location: Drocourt
(49.0571°N, 1.7669°E)
Time: 21:14:51
(UTC+00:00)

Transit 4A - Pass Details

Date: 14 April 2024
Orbit: 871 x 971 km, 66.8° (Epoch: 18 May)

Event Time Altitude Azimuth Distance (km) Brightness Sun altitude
Rises 15:57:32 0° 255° (WSW) 3,524 12.3 26.1°
Reaches altitude 10° 16:00:25 10° 267° (W) 2,570 11.9 25.6°
Maximum altitude 16:05:29 28° 325° (NW) 1,601 9.6 24.8°
Drops below altitude 10° 16:10:29 10° 24° (NNE) 2,539 9.9 24.0°
Sets 16:13:20 0° 36° (NE) 3,474 10.5 23.6°
